Total_Precipitation_Accumulation
0.57 0.64 0.59 0.51 0.42 0.41 0.37 0.30 0.23 0.28 0.31 0.27 0.19 0.18 0.18 0.22 0.23 0.26 0.34 0.29 0.30 0.42 0.54 0.58 0.61 0.55 0.54 0.58 0.58 0.53 0.45 0.41 0.39 0.36 0.30 0.25 0.22 0.22 0.23 0.25 0.25 0.24 0.23
0.75 0.80 0.85 0.80 0.67 0.63 0.63 0.58 0.50 0.46 0.43 0.40 0.32 0.25 0.24 0.30 0.32 0.32 0.38 0.39 0.42 0.48 0.61 0.76 0.81 0.76 0.71 0.72 0.68 0.64 0.60 0.56 0.54 0.52 0.48 0.41 0.35 0.32 0.32 0.32 0.32 0.29 0.26
1.02 1.03 1.10 1.03 0.93 0.87 0.87 0.87 0.81 0.70 0.56 0.49 0.46 0.41 0.38 0.38 0.40 0.41 0.49 0.59 0.61 0.59 0.63 0.70 0.75 0.80 0.81 0.86 0.86 0.84 0.83 0.75 0.68 0.64 0.64 0.60 0.55 0.49 0.45 0.43 0.41 0.38 0.33
1.34 1.37 1.44 1.34 1.22 1.19 1.25 1.27 1.15 1.04 0.89 0.83 0.76 0.68 0.58 0.58 0.58 0.63 0.66 0.75 0.82 0.76 0.71 0.64 0.63 0.70 0.77 0.86 0.89 0.90 0.84 0.75 0.74 0.75 0.76 0.75 0.69 0.64 0.59 0.57 0.55 0.51 0.45
1.79 1.77 1.80 1.79 1.72 1.73 1.71 1.54 1.47 1.32 1.22 1.16 0.95 0.89 0.78 0.76 0.79 0.78 0.83 0.84 0.85 0.83 0.78 0.70 0.65 0.65 0.67 0.75 0.82 0.86 0.86 0.84 0.84 0.80 0.76 0.78 0.80 0.77 0.66 0.61 0.60 0.58 0.54
2.48 2.48 2.41 2.32 2.23 2.16 2.01 1.90 1.77 1.56 1.40 1.28 1.04 0.97 0.90 0.88 0.89 0.86 0.82 0.74 0.69 0.66 0.66 0.68 0.69 0.63 0.57 0.60 0.65 0.71 0.77 0.81 0.79 0.76 0.75 0.79 0.80 0.73 0.65 0.61 0.59 0.60 0.60
3.24 3.23 3.08 2.82 2.66 2.58 2.41 2.27 2.04 1.82 1.57 1.37 1.31 1.14 0.92 0.84 0.82 0.74 0.66 0.59 0.59 0.58 0.57 0.57 0.53 0.51 0.46 0.48 0.50 0.52 0.59 0.68 0.74 0.79 0.81 0.80 0.76 0.73 0.69 0.67 0.66 0.65 0.65
3.68 3.63 3.57 3.41 3.13 2.93 2.69 2.38 2.20 2.02 1.67 1.39 1.33 1.25 1.01 0.83 0.67 0.54 0.47 0.43 0.42 0.44 0.46 0.47 0.47 0.46 0.43 0.42 0.46 0.52 0.56 0.62 0.70 0.73 0.75 0.78 0.79 0.80 0.81 0.82 0.82 0.80 0.76
4.12 3.98 3.79 3.48 3.16 2.91 2.76 2.50 2.22 2.04 1.76 1.45 1.26 1.21 1.09 0.95 0.76 0.57 0.44 0.39 0.34 0.31 0.30 0.30 0.30 0.29 0.30 0.31 0.35 0.46 0.51 0.52 0.58 0.63 0.68 0.74 0.78 0.79 0.81 0.82 0.83 0.86 0.86
3.83 3.57 3.41 3.27 2.99 2.58 2.26 2.05 1.84 1.62 1.46 1.31 1.13 0.97 0.86 0.78 0.79 0.72 0.56 0.43 0.35 0.31 0.26 0.22 0.22 0.23 0.25 0.27 0.35 0.43 0.47 0.47 0.52 0.54 0.54 0.57 0.61 0.65 0.70 0.77 0.83 0.88 0.93
3.31 3.03 2.83 2.61 2.33 1.92 1.54 1.34 1.21 1.14 1.07 1.00 0.93 0.85 0.78 0.72 0.68 0.69 0.63 0.49 0.42 0.39 0.36 0.33 0.30 0.28 0.26 0.26 0.30 0.41 0.45 0.40 0.40 0.40 0.42 0.44 0.46 0.50 0.56 0.63 0.71 0.78 0.83
2.77 2.42 2.08 1.72 1.44 1.24 1.04 0.92 0.83 0.79 0.78 0.76 0.74 0.69 0.64 0.62 0.62 0.61 0.61 0.55 0.47 0.42 0.37 0.32 0.28 0.24 0.21 0.21 0.24 0.31 0.28 0.28 0.28 0.27 0.28 0.29 0.30 0.31 0.36 0.43 0.52 0.60 0.68
2.07 1.79 1.47 1.26 1.06 0.92 0.82 0.71 0.62 0.57 0.55 0.57 0.58 0.57 0.56 0.54 0.50 0.48 0.50 0.51 0.44 0.36 0.30 0.27 0.24 0.22 0.21 0.21 0.21 0.25 0.23 0.22 0.20 0.18 0.17 0.17 0.17 0.18 0.21 0.25 0.31 0.39 0.49
1.49 1.23 1.00 0.84 0.73 0.66 0.62 0.59 0.53 0.50 0.46 0.45 0.46 0.44 0.42 0.40 0.36 0.33 0.33 0.34 0.35 0.32 0.27 0.23 0.19 0.15 0.13 0.14 0.17 0.19 0.18 0.19 0.17 0.15 0.13 0.11 0.11 0.11 0.12 0.14 0.17 0.21 0.26
0.92 0.77 0.65 0.57 0.52 0.48 0.44 0.40 0.39 0.38 0.37 0.35 0.33 0.30 0.28 0.26 0.23 0.21 0.22 0.24 0.28 0.30 0.25 0.18 0.15 0.11 0.09 0.09 0.11 0.10 0.13 0.15 0.13 0.12 0.10 0.08 0.08 0.08 0.09 0.10 0.11 0.14 0.16
0.59 0.53 0.45 0.39 0.35 0.31 0.26 0.22 0.22 0.22 0.23 0.24 0.24 0.23 0.22 0.19 0.18 0.17 0.17 0.18 0.20 0.24 0.22 0.13 0.10 0.08 0.07 0.07 0.08 0.09 0.10 0.10 0.10 0.10 0.09 0.09 0.09 0.09 0.10 0.10 0.12 0.14 0.15
0.35 0.31 0.27 0.24 0.22 0.19 0.18 0.17 0.17 0.18 0.19 0.18 0.17 0.16 0.16 0.15 0.15 0.13 0.12 0.12 0.12 0.16 0.18 0.11 0.08 0.08 0.09 0.11 0.11 0.13 0.13 0.14 0.14 0.17 0.17 0.15 0.14 0.12 0.13 0.14 0.16 0.16 0.16
0.24 0.19 0.17 0.16 0.16 0.15 0.15 0.14 0.14 0.14 0.15 0.14 0.13 0.11 0.10 0.10 0.11 0.11 0.10 0.10 0.10 0.13 0.16 0.15 0.11 0.10 0.11 0.14 0.16 0.17 0.11 0.09 0.13 0.17 0.17 0.14 0.13 0.13 0.13 0.13 0.13 0.12 0.10
0.20 0.18 0.15 0.13 0.12 0.11 0.10 0.10 0.10 0.10 0.10 0.09 0.09 0.08 0.08 0.08 0.09 0.10 0.11 0.12 0.13 0.13 0.19 0.23 0.19 0.16 0.13 0.12 0.17 0.15 0.15 0.23 0.15 0.13 0.12 0.09 0.08 0.07 0.07 0.06 0.06 0.06 0.05
0.14 0.13 0.12 0.10 0.09 0.08 0.07 0.06 0.06 0.07 0.07 0.06 0.06 0.05 0.05 0.06 0.08 0.11 0.12 0.14 0.18 0.21 0.24 0.27 0.22 0.17 0.16 0.14 0.23 0.23 0.21 0.25 0.21 0.12 0.11 0.08 0.07 0.05 0.05 0.05 0.06 0.05 0.04
0.12 0.09 0.07 0.05 0.03 0.03 0.02 0.02 0.02 0.03 0.04 0.04 0.03 0.03 0.03 0.04 0.06 0.10 0.12 0.17 0.23 0.28 0.28 0.30 0.27 0.23 0.20 0.22 0.26 0.27 0.29 0.26 0.21 0.15 0.16 0.15 0.17 0.22 0.25 0.20 0.14 0.11 0.06
0.06 0.04 0.03 0.03 0.02 0.01 0.00 0.00 0.00 0.02 0.03 0.05 0.06 0.05 0.04 0.03 0.04 0.07 0.10 0.15 0.22 0.27 0.29 0.32 0.31 0.31 0.28 0.32 0.37 0.39 0.42 0.40 0.33 0.23 0.26 0.21 0.19 0.28 0.32 0.32 0.26 0.16 0.09
0.07 0.05 0.04 0.03 0.03 0.01 0.00 0.00 0.00 0.02 0.06 0.09 0.10 0.10 0.07 0.05 0.08 0.11 0.10 0.10 0.14 0.14 0.23 0.34 0.40 0.40 0.42 0.47 0.55 0.54 0.51 0.50 0.46 0.37 0.44 0.40 0.31 0.36 0.29 0.29 0.33 0.27 0.20
0.09 0.08 0.06 0.05 0.06 0.03 0.00 0.00 0.00 0.03 0.08 0.09 0.09 0.11 0.14 0.15 0.11 0.08 0.08 0.13 0.19 0.23 0.26 0.33 0.46 0.49 0.48 0.50 0.57 0.59 0.58 0.55 0.51 0.50 0.56 0.55 0.39 0.39 0.34 0.49 0.53 0.47 0.36
0.11 0.10 0.08 0.09 0.10 0.07 0.01 0.00 0.00 0.03 0.07 0.07 0.07 0.07 0.08 0.12 0.09 0.09 0.11 0.21 0.27 0.32 0.27 0.36 0.47 0.52 0.53 0.56 0.57 0.58 0.65 0.70 0.64 0.53 0.54 0.57 0.51 0.43 0.45 0.64 0.64 0.65 0.55
0.12 0.10 0.09 0.11 0.12 0.10 0.02 0.00 0.01 0.03 0.07 0.08 0.11 0.13 0.09 0.08 0.10 0.10 0.10 0.20 0.29 0.32 0.42 0.62 0.75 0.75 0.71 0.69 0.63 0.64 0.73 0.75 0.74 0.70 0.60 0.60 0.65 0.58 0.59 0.69 0.76 0.72 0.67